Wetterdaten: Montag, 22.06.2015
Datum Zeit Auen-Temp. Temp gefhlt Luftfeuchte Luftdruck Regen Wind Richtung Richtung Taupunkt Windben
22.06.2015 00:00 11,4 C 11,2 C 83 % 1018,9 hPa 0,0 mm 2,6 km/h (1 Bft) W-SW 247 8,6 C 4,1 km/h (1 Bft)
22.06.2015 00:05 11,4 C 11,2 C 84 % 1018,9 hPa 0,0 mm 3,1 km/h (1 Bft) SW 225 8,8 C 12,2 km/h (2 Bft)
22.06.2015 00:10 11,7 C 11,4 C 83 % 1018,9 hPa 0,0 mm 6,2 km/h (2 Bft) W-SW 247 8,9 C 13,5 km/h (3 Bft)
22.06.2015 00:15 12,0 C 11,7 C 83 % 1018,6 hPa 0,0 mm 6,7 km/h (2 Bft) S-SW 202 9,2 C 10,4 km/h (2 Bft)
22.06.2015 00:20 11,9 C 11,8 C 82 % 1018,6 hPa 0,0 mm 7,3 km/h (2 Bft) W-SW 247 8,9 C 8,3 km/h (2 Bft)
22.06.2015 00:25 12,0 C 11,9 C 82 % 1018,6 hPa 0,0 mm 7,0 km/h (2 Bft) W-SW 247 9,0 C 6,7 km/h (2 Bft)
22.06.2015 00:30 12,0 C 12,0 C 81 % 1018,6 hPa 0,0 mm 7,0 km/h (2 Bft) S 180 8,8 C 4,9 km/h (1 Bft)
22.06.2015 00:35 11,9 C 11,9 C 81 % 1018,4 hPa 0,0 mm 6,0 km/h (2 Bft) SW 225 8,7 C 7,8 km/h (2 Bft)
22.06.2015 00:40 11,5 C 11,7 C 81 % 1018,4 hPa 0,0 mm 3,4 km/h (1 Bft) SW 225 8,4 C 6,2 km/h (2 Bft)
22.06.2015 00:45 11,5 C 11,5 C 82 % 1018,4 hPa 0,0 mm 2,3 km/h (1 Bft) SO 135 8,5 C 4,1 km/h (1 Bft)
22.06.2015 00:50 11,8 C 11,7 C 82 % 1018,4 hPa 0,0 mm 5,2 km/h (1 Bft) SW 225 8,8 C 11,9 km/h (2 Bft)
22.06.2015 00:55 12,0 C 11,9 C 81 % 1018,4 hPa 0,0 mm 7,5 km/h (2 Bft) S 180 8,8 C 11,4 km/h (2 Bft)
22.06.2015 01:00 12,1 C 12,1 C 80 % 1018,4 hPa 0,0 mm 7,8 km/h (2 Bft) SW 225 8,8 C 10,1 km/h (2 Bft)
22.06.2015 01:05 12,3 C 12,4 C 79 % 1018,4 hPa 0,0 mm 7,0 km/h (2 Bft) S 180 8,8 C 9,1 km/h (2 Bft)
22.06.2015 01:10 12,4 C 12,6 C 79 % 1018,4 hPa 0,0 mm 6,2 km/h (2 Bft) S-SW 202 8,9 C 6,5 km/h (2 Bft)
22.06.2015 01:15 12,6 C 12,7 C 78 % 1018,4 hPa 0,0 mm 6,2 km/h (2 Bft) W-SW 247 8,9 C 5,7 km/h (1 Bft)
22.06.2015 01:20 12,4 C 12,7 C 78 % 1018,4 hPa 0,0 mm 5,4 km/h (1 Bft) W-SW 247 8,7 C 5,7 km/h (1 Bft)
22.06.2015 01:25 12,2 C 12,7 C 78 % 1018,4 hPa 0,0 mm 4,4 km/h (1 Bft) W-SW 247 8,5 C 4,1 km/h (1 Bft)
22.06.2015 01:30 11,9 C 12,5 C 79 % 1018,4 hPa 0,0 mm 2,3 km/h (1 Bft) SO 135 8,4 C 0,0 km/h (0 Bft)
22.06.2015 01:35 11,6 C 12,1 C 79 % 1018,3 hPa 0,0 mm 1,3 km/h (1 Bft) NO 45 8,1 C 0,0 km/h (0 Bft)
22.06.2015 01:40 11,3 C 11,5 C 81 % 1018,3 hPa 0,0 mm 0,5 km/h (0 Bft) O-NO 67 8,2 C 0,0 km/h (0 Bft)
22.06.2015 01:45 11,3 C 11,4 C 81 % 1018,3 hPa 0,0 mm 0,3 km/h (0 Bft) NO 45 8,2 C 5,4 km/h (1 Bft)
22.06.2015 01:50 11,4 C 11,4 C 83 % 1018,3 hPa 0,0 mm 1,8 km/h (1 Bft) S-SO 157 8,6 C 4,1 km/h (1 Bft)
22.06.2015 01:55 11,5 C 11,4 C 83 % 1018,5 hPa 0,0 mm 3,1 km/h (1 Bft) S 180 8,7 C 3,9 km/h (1 Bft)
22.06.2015 02:00 11,5 C 11,4 C 83 % 1018,5 hPa 0,0 mm 4,4 km/h (1 Bft) SO 135 8,7 C 6,5 km/h (2 Bft)
22.06.2015 02:05 11,5 C 11,4 C 84 % 1018,5 hPa 0,0 mm 4,1 km/h (1 Bft) S 180 8,9 C 6,7 km/h (2 Bft)
22.06.2015 02:10 11,5 C 11,4 C 84 % 1018,5 hPa 0,0 mm 4,1 km/h (1 Bft) W 270 8,9 C 3,1 km/h (1 Bft)
22.06.2015 02:15 11,5 C 11,5 C 84 % 1018,8 hPa 0,0 mm 3,9 km/h (1 Bft) SW 225 8,9 C 12,9 km/h (3 Bft)
22.06.2015 02:20 11,4 C 11,3 C 85 % 1018,8 hPa 0,0 mm 4,9 km/h (1 Bft) SO 135 9,0 C 14,0 km/h (3 Bft)
22.06.2015 02:25 11,3 C 11,2 C 85 % 1018,8 hPa 0,7 mm 4,1 km/h (1 Bft) S 180 8,9 C 4,4 km/h (1 Bft)
22.06.2015 02:30 11,1 C 11,0 C 86 % 1018,8 hPa 0,0 mm 1,3 km/h (1 Bft) O-SO 112 8,8 C 0,0 km/h (0 Bft)
22.06.2015 02:35 11,1 C 11,0 C 87 % 1018,8 hPa 0,0 mm 1,0 km/h (0 Bft) SO 135 9,0 C 0,0 km/h (0 Bft)
22.06.2015 02:40 11,1 C 10,9 C 87 % 1018,8 hPa 0,0 mm 1,0 km/h (0 Bft) S-SO 157 9,0 C 4,1 km/h (1 Bft)
22.06.2015 02:45 11,1 C 11,0 C 88 % 1018,8 hPa 0,0 mm 1,6 km/h (1 Bft) S 180 9,2 C 0,0 km/h (0 Bft)
22.06.2015 02:50 11,0 C 10,9 C 88 % 1018,8 hPa 0,0 mm 1,6 km/h (1 Bft) W-SW 247 9,1 C 3,6 km/h (1 Bft)
22.06.2015 02:55 11,1 C 11,0 C 88 % 1018,6 hPa 0,0 mm 0,8 km/h (0 Bft) W 270 9,2 C 0,0 km/h (0 Bft)
22.06.2015 03:00 11,0 C 10,9 C 88 % 1018,6 hPa 0,7 mm 0,8 km/h (0 Bft) S-SW 202 9,1 C 0,0 km/h (0 Bft)
22.06.2015 03:05 11,0 C 10,9 C 88 % 1018,6 hPa 0,0 mm 1,0 km/h (0 Bft) S-SO 157 9,1 C 4,7 km/h (1 Bft)
22.06.2015 03:10 11,0 C 10,9 C 89 % 1018,6 hPa 0,0 mm 0,5 km/h (0 Bft) S 180 9,3 C 0,0 km/h (0 Bft)
22.06.2015 03:15 11,0 C 10,9 C 89 % 1018,5 hPa 0,0 mm 0,0 km/h (0 Bft) S 180 9,3 C 0,0 km/h (0 Bft)
22.06.2015 03:20 11,0 C 10,9 C 89 % 1018,5 hPa 0,0 mm 0,0 km/h (0 Bft) SW 225 9,3 C 0,0 km/h (0 Bft)
22.06.2015 03:25 10,9 C 10,8 C 89 % 1018,5 hPa 0,0 mm 0,0 km/h (0 Bft) S 180 9,2 C 0,0 km/h (0 Bft)
22.06.2015 03:30 10,9 C 10,8 C 89 % 1018,5 hPa 0,7 mm 0,8 km/h (0 Bft) W 270 9,2 C 0,0 km/h (0 Bft)
22.06.2015 03:35 10,9 C 10,8 C 89 % 1018,3 hPa 0,0 mm 1,0 km/h (0 Bft) S-SW 202 9,2 C 2,8 km/h (1 Bft)
22.06.2015 03:40 10,8 C 10,7 C 89 % 1018,3 hPa 0,0 mm 1,6 km/h (1 Bft) S 180 9,1 C 4,7 km/h (1 Bft)
22.06.2015 03:45 10,9 C 10,8 C 89 % 1018,3 hPa 0,0 mm 1,6 km/h (1 Bft) SW 225 9,2 C 0,0 km/h (0 Bft)
22.06.2015 03:50 10,8 C 10,7 C 90 % 1018,3 hPa 0,0 mm 1,3 km/h (1 Bft) SW 225 9,2 C 6,2 km/h (2 Bft)
22.06.2015 03:55 10,8 C 10,7 C 90 % 1018,2 hPa 0,0 mm 0,8 km/h (0 Bft) SW 225 9,2 C 0,0 km/h (0 Bft)
22.06.2015 04:00 10,9 C 10,8 C 90 % 1018,2 hPa 0,0 mm 1,0 km/h (0 Bft) W-SW 247 9,3 C 0,0 km/h (0 Bft)
22.06.2015 04:05 10,9 C 10,8 C 90 % 1018,2 hPa 0,0 mm 1,3 km/h (1 Bft) W-SW 247 9,3 C 4,4 km/h (1 Bft)
22.06.2015 04:10 10,7 C 10,6 C 89 % 1018,2 hPa 0,0 mm 0,8 km/h (0 Bft) W 270 9,0 C 0,0 km/h (0 Bft)
22.06.2015 04:15 10,7 C 10,6 C 89 % 1018,1 hPa 0,0 mm 0,8 km/h (0 Bft) S-SW 202 9,0 C 3,6 km/h (1 Bft)
22.06.2015 04:20 10,6 C 10,5 C 89 % 1018,1 hPa 0,0 mm 1,8 km/h (1 Bft) W 270 8,9 C 0,0 km/h (0 Bft)
22.06.2015 04:25 10,5 C 10,3 C 89 % 1018,1 hPa 0,0 mm 1,6 km/h (1 Bft) SW 225 8,8 C 3,1 km/h (1 Bft)
22.06.2015 04:30 10,3 C 10,2 C 89 % 1018,1 hPa 0,0 mm 0,5 km/h (0 Bft) W-SW 247 8,6 C 0,0 km/h (0 Bft)
22.06.2015 04:35 10,2 C 10,1 C 89 % 1018,1 hPa 0,0 mm 1,6 km/h (1 Bft) SW 225 8,5 C 0,0 km/h (0 Bft)
22.06.2015 04:40 9,9 C 9,8 C 89 % 1018,1 hPa 0,0 mm 2,1 km/h (1 Bft) SW 225 8,2 C 3,6 km/h (1 Bft)
22.06.2015 04:45 10,2 C 10,0 C 89 % 1018,1 hPa 0,0 mm 2,1 km/h (1 Bft) W-SW 247 8,5 C 3,4 km/h (1 Bft)
22.06.2015 04:50 10,5 C 10,3 C 89 % 1018,1 hPa 0,0 mm 3,6 km/h (1 Bft) S 180 8,8 C 5,2 km/h (1 Bft)
22.06.2015 04:55 10,8 C 10,5 C 89 % 1018,3 hPa 0,0 mm 4,1 km/h (1 Bft) SW 225 9,1 C 12,2 km/h (2 Bft)
22.06.2015 05:00 11,2 C 10,9 C 89 % 1018,3 hPa 0,0 mm 5,4 km/h (1 Bft) SW 225 9,5 C 15,0 km/h (3 Bft)
22.06.2015 05:05 11,3 C 11,0 C 89 % 1018,3 hPa 0,0 mm 6,2 km/h (2 Bft) SW 225 9,6 C 7,5 km/h (2 Bft)
22.06.2015 05:10 11,2 C 10,9 C 88 % 1018,3 hPa 0,0 mm 5,4 km/h (1 Bft) NW 315 9,3 C 18,9 km/h (3 Bft)
22.06.2015 05:15 11,1 C 10,8 C 88 % 1018,1 hPa 0,0 mm 3,1 km/h (1 Bft) W-SW 247 9,2 C 3,1 km/h (1 Bft)
22.06.2015 05:20 10,9 C 10,7 C 88 % 1018,1 hPa 0,0 mm 1,8 km/h (1 Bft) W-SW 247 9,0 C 7,0 km/h (2 Bft)
22.06.2015 05:25 10,8 C 10,6 C 88 % 1018,1 hPa 0,0 mm 1,6 km/h (1 Bft) S 180 8,9 C 0,0 km/h (0 Bft)
22.06.2015 05:30 10,5 C 10,4 C 88 % 1018,1 hPa 0,0 mm 0,5 km/h (0 Bft) S 180 8,6 C 0,0 km/h (0 Bft)
22.06.2015 05:35 10,5 C 10,4 C 88 % 1018,1 hPa 0,0 mm 0,0 km/h (0 Bft) S 180 8,6 C 0,0 km/h (0 Bft)
22.06.2015 05:40 10,5 C 10,4 C 88 % 1018,1 hPa 0,0 mm 0,8 km/h (0 Bft) SW 225 8,6 C 5,2 km/h (1 Bft)
22.06.2015 05:45 10,7 C 10,6 C 88 % 1018,1 hPa 0,0 mm 2,6 km/h (1 Bft) W-SW 247 8,8 C 3,6 km/h (1 Bft)
22.06.2015 05:50 10,9 C 10,8 C 88 % 1018,1 hPa 0,0 mm 3,9 km/h (1 Bft) W-SW 247 9,0 C 3,1 km/h (1 Bft)
22.06.2015 05:55 10,9 C 10,8 C 89 % 1018,1 hPa 0,0 mm 3,1 km/h (1 Bft) SW 225 9,2 C 8,8 km/h (2 Bft)
22.06.2015 06:00 11,1 C 11,0 C 88 % 1018,1 hPa 0,0 mm 3,9 km/h (1 Bft) SW 225 9,2 C 5,7 km/h (1 Bft)
22.06.2015 06:05 11,2 C 11,0 C 88 % 1018,1 hPa 0,0 mm 4,7 km/h (1 Bft) S 180 9,3 C 8,0 km/h (2 Bft)
22.06.2015 06:10 11,2 C 11,0 C 88 % 1018,1 hPa 0,0 mm 5,2 km/h (1 Bft) S 180 9,3 C 5,2 km/h (1 Bft)
22.06.2015 06:15 11,1 C 10,9 C 88 % 1018,0 hPa 0,0 mm 3,4 km/h (1 Bft) W 270 9,2 C 0,0 km/h (0 Bft)
22.06.2015 06:20 10,9 C 10,7 C 88 % 1018,0 hPa 0,0 mm 1,0 km/h (0 Bft) S 180 9,0 C 0,0 km/h (0 Bft)
22.06.2015 06:25 10,7 C 10,6 C 88 % 1018,0 hPa 0,0 mm 0,0 km/h (0 Bft) S 180 8,8 C 0,0 km/h (0 Bft)
22.06.2015 06:30 10,5 C 10,4 C 88 % 1018,0 hPa 0,0 mm 0,8 km/h (0 Bft) S 180 8,6 C 0,0 km/h (0 Bft)
22.06.2015 06:35 10,3 C 10,2 C 88 % 1018,0 hPa 0,0 mm 1,0 km/h (0 Bft) SW 225 8,4 C 4,9 km/h (1 Bft)
22.06.2015 06:40 10,5 C 10,4 C 88 % 1018,0 hPa 0,0 mm 1,3 km/h (1 Bft) SO 135 8,6 C 0,0 km/h (0 Bft)
22.06.2015 06:45 10,8 C 11,1 C 85 % 1018,0 hPa 0,0 mm 1,6 km/h (1 Bft) S 180 8,4 C 3,1 km/h (1 Bft)
22.06.2015 06:50 11,3 C 12,4 C 85 % 1018,0 hPa 0,0 mm 0,5 km/h (0 Bft) S-SO 157 8,9 C 0,0 km/h (0 Bft)
22.06.2015 06:55 11,5 C 12,9 C 88 % 1017,6 hPa 0,0 mm 0,3 km/h (0 Bft) O 90 9,6 C 0,0 km/h (0 Bft)
22.06.2015 07:00 11,9 C 13,8 C 85 % 1017,6 hPa 0,0 mm 0,0 km/h (0 Bft) W 270 9,5 C 0,0 km/h (0 Bft)
22.06.2015 07:05 12,0 C 14,0 C 85 % 1017,6 hPa 0,0 mm 0,3 km/h (0 Bft) SW 225 9,6 C 3,4 km/h (1 Bft)
22.06.2015 07:10 12,2 C 14,7 C 88 % 1017,6 hPa 0,0 mm 0,3 km/h (0 Bft) NO 45 10,3 C 0,0 km/h (0 Bft)
22.06.2015 07:15 12,7 C 15,9 C 87 % 1017,6 hPa 0,0 mm 0,3 km/h (0 Bft) O 90 10,6 C 0,0 km/h (0 Bft)
22.06.2015 07:20 13,0 C 18,0 C 86 % 1017,6 hPa 0,0 mm 0,0 km/h (0 Bft) O-SO 112 10,7 C 0,0 km/h (0 Bft)
22.06.2015 07:25 13,2 C 18,9 C 85 % 1017,6 hPa 0,0 mm 0,0 km/h (0 Bft) SO 135 10,7 C 0,0 km/h (0 Bft)
22.06.2015 07:30 13,9 C 20,1 C 83 % 1017,6 hPa 0,0 mm 0,0 km/h (0 Bft) SO 135 11,1 C 0,0 km/h (0 Bft)
22.06.2015 07:35 14,1 C 20,8 C 82 % 1017,7 hPa 0,0 mm 0,0 km/h (0 Bft) SO 135 11,1 C 0,0 km/h (0 Bft)
22.06.2015 07:40 14,7 C 22,2 C 82 % 1017,7 hPa 0,0 mm 0,0 km/h (0 Bft) O-SO 112 11,7 C 0,0 km/h (0 Bft)
22.06.2015 07:45 15,0 C 22,3 C 81 % 1017,7 hPa 0,0 mm 0,3 km/h (0 Bft) SW 225 11,8 C 7,3 km/h (2 Bft)
22.06.2015 07:50 15,1 C 22,1 C 80 % 1017,7 hPa 0,0 mm 0,5 km/h (0 Bft) W-SW 247 11,7 C 0,0 km/h (0 Bft)
22.06.2015 07:55 15,3 C 22,5 C 79 % 1018,2 hPa 0,0 mm 1,0 km/h (0 Bft) S 180 11,7 C 5,2 km/h (1 Bft)
22.06.2015 08:00 15,4 C 22,7 C 79 % 1018,2 hPa 0,0 mm 0,8 km/h (0 Bft) SW 225 11,8 C 0,0 km/h (0 Bft)
22.06.2015 08:05 15,4 C 22,7 C 79 % 1018,2 hPa 0,0 mm 0,5 km/h (0 Bft) O-SO 112 11,8 C 0,0 km/h (0 Bft)
22.06.2015 08:10 15,8 C 23,6 C 78 % 1018,2 hPa 0,0 mm 0,0 km/h (0 Bft) O 90 12,0 C 0,0 km/h (0 Bft)
22.06.2015 08:15 16,1 C 23,6 C 77 % 1018,0 hPa 0,0 mm 0,0 km/h (0 Bft) S-SO 157 12,1 C 0,0 km/h (0 Bft)
22.06.2015 08:20 16,0 C 23,7 C 77 % 1018,0 hPa 0,0 mm 0,0 km/h (0 Bft) NO 45 12,0 C 0,0 km/h (0 Bft)
22.06.2015 08:25 16,1 C 23,5 C 77 % 1018,0 hPa 0,0 mm 0,3 km/h (0 Bft) NW 315 12,1 C 0,0 km/h (0 Bft)
22.06.2015 08:30 16,5 C 23,8 C 76 % 1018,0 hPa 0,0 mm 0,3 km/h (0 Bft) SO 135 12,3 C 0,0 km/h (0 Bft)
22.06.2015 08:35 16,6 C 24,2 C 76 % 1017,6 hPa 0,0 mm 0,3 km/h (0 Bft) S 180 12,3 C 0,0 km/h (0 Bft)
22.06.2015 08:40 16,6 C 24,3 C 75 % 1017,6 hPa 0,0 mm 0,5 km/h (0 Bft) W 270 12,1 C 2,8 km/h (1 Bft)
22.06.2015 08:45 16,7 C 24,8 C 74 % 1017,6 hPa 0,0 mm 0,0 km/h (0 Bft) SO 135 12,0 C 0,0 km/h (0 Bft)
22.06.2015 08:50 16,7 C 25,0 C 73 % 1017,6 hPa 0,0 mm 0,3 km/h (0 Bft) S 180 11,8 C 0,0 km/h (0 Bft)
22.06.2015 08:55 16,9 C 25,2 C 73 % 1017,4 hPa 0,0 mm 0,3 km/h (0 Bft) O-SO 112 12,0 C 0,0 km/h (0 Bft)
22.06.2015 09:00 17,1 C 25,1 C 71 % 1017,4 hPa 0,0 mm 0,3 km/h (0 Bft) O-SO 112 11,8 C 0,0 km/h (0 Bft)
22.06.2015 09:05 17,3 C 25,4 C 71 % 1017,4 hPa 0,0 mm 0,3 km/h (0 Bft) O-SO 112 12,0 C 0,0 km/h (0 Bft)
22.06.2015 09:10 17,3 C 24,2 C 70 % 1017,4 hPa 0,0 mm 0,8 km/h (0 Bft) O 90 11,8 C 0,0 km/h (0 Bft)
22.06.2015 09:15 17,7 C 24,6 C 70 % 1017,2 hPa 0,0 mm 1,3 km/h (1 Bft) W-NW 292 12,2 C 0,0 km/h (0 Bft)
22.06.2015 09:20 17,9 C 23,9 C 70 % 1017,2 hPa 0,0 mm 1,6 km/h (1 Bft) NW 315 12,3 C 5,7 km/h (1 Bft)
22.06.2015 09:25 17,9 C 23,8 C 70 % 1017,2 hPa 0,0 mm 2,1 km/h (1 Bft) NW 315 12,3 C 9,1 km/h (2 Bft)
22.06.2015 09:30 18,3 C 24,1 C 68 % 1017,2 hPa 0,0 mm 4,1 km/h (1 Bft) NW 315 12,3 C 7,0 km/h (2 Bft)
22.06.2015 09:35 18,4 C 24,5 C 67 % 1016,9 hPa 0,0 mm 5,2 km/h (1 Bft) NW 315 12,2 C 7,8 km/h (2 Bft)
22.06.2015 09:40 18,7 C 24,8 C 67 % 1016,9 hPa 0,0 mm 6,2 km/h (2 Bft) W 270 12,4 C 10,6 km/h (2 Bft)
22.06.2015 09:45 19,0 C 25,0 C 65 % 1016,9 hPa 0,0 mm 4,9 km/h (1 Bft) N-NO 22 12,3 C 10,1 km/h (2 Bft)
22.06.2015 09:50 19,2 C 25,3 C 65 % 1016,9 hPa 0,0 mm 3,9 km/h (1 Bft) W-NW 292 12,5 C 10,4 km/h (2 Bft)
22.06.2015 09:55 19,5 C 25,7 C 65 % 1017,2 hPa 0,0 mm 4,1 km/h (1 Bft) W-NW 292 12,7 C 9,1 km/h (2 Bft)
22.06.2015 10:00 19,2 C 25,2 C 62 % 1017,2 hPa 0,0 mm 5,4 km/h (1 Bft) NW 315 11,7 C 11,4 km/h (2 Bft)
22.06.2015 10:05 19,2 C 24,7 C 62 % 1017,2 hPa 0,0 mm 6,7 km/h (2 Bft) W-NW 292 11,7 C 4,4 km/h (1 Bft)
22.06.2015 10:10 19,4 C 24,8 C 63 % 1017,2 hPa 0,0 mm 5,2 km/h (1 Bft) W-SW 247 12,2 C 6,0 km/h (2 Bft)
22.06.2015 10:15 19,5 C 24,7 C 62 % 1017,2 hPa 0,0 mm 4,4 km/h (1 Bft) NW 315 12,0 C 6,7 km/h (2 Bft)
22.06.2015 10:20 19,6 C 25,0 C 61 % 1017,2 hPa 0,0 mm 4,4 km/h (1 Bft) W-NW 292 11,9 C 5,7 km/h (1 Bft)
22.06.2015 10:25 19,8 C 25,2 C 62 % 1017,2 hPa 0,0 mm 4,1 km/h (1 Bft) NW 315 12,3 C 7,3 km/h (2 Bft)
22.06.2015 10:30 20,2 C 25,8 C 61 % 1017,2 hPa 0,0 mm 4,4 km/h (1 Bft) NW 315 12,4 C 13,5 km/h (3 Bft)
22.06.2015 10:35 19,9 C 25,2 C 60 % 1017,4 hPa 0,0 mm 5,7 km/h (1 Bft) W-SW 247 11,9 C 14,0 km/h (3 Bft)
22.06.2015 10:40 19,6 C 24,5 C 59 % 1017,4 hPa 0,0 mm 6,7 km/h (2 Bft) W-SW 247 11,4 C 3,1 km/h (1 Bft)
22.06.2015 10:45 20,1 C 24,9 C 59 % 1017,4 hPa 0,0 mm 6,0 km/h (2 Bft) SW 225 11,8 C 5,7 km/h (1 Bft)
22.06.2015 10:50 20,6 C 25,7 C 59 % 1017,4 hPa 0,0 mm 4,7 km/h (1 Bft) NW 315 12,3 C 12,7 km/h (3 Bft)
22.06.2015 10:55 20,6 C 25,7 C 59 % 1017,8 hPa 0,0 mm 4,9 km/h (1 Bft) NW 315 12,3 C 10,6 km/h (2 Bft)
22.06.2015 11:00 20,7 C 25,9 C 59 % 1017,8 hPa 0,0 mm 6,2 km/h (2 Bft) NW 315 12,4 C 7,3 km/h (2 Bft)
22.06.2015 11:05 20,7 C 25,6 C 58 % 1017,8 hPa 0,0 mm 7,5 km/h (2 Bft) NW 315 12,1 C 24,9 km/h (4 Bft)
22.06.2015 11:10 20,2 C 24,0 C 57 % 1017,8 hPa 0,0 mm 12,9 km/h (3 Bft) NW 315 11,4 C 22,0 km/h (4 Bft)
22.06.2015 11:15 19,9 C 23,6 C 57 % 1018,0 hPa 0,0 mm 13,5 km/h (3 Bft) W-SW 247 11,1 C 10,9 km/h (2 Bft)
22.06.2015 11:20 19,6 C 23,0 C 57 % 1018,0 hPa 0,0 mm 11,1 km/h (2 Bft) NW 315 10,8 C 10,9 km/h (2 Bft)
22.06.2015 11:25 20,0 C 23,4 C 58 % 1018,0 hPa 0,0 mm 10,4 km/h (2 Bft) NW 315 11,5 C 15,5 km/h (3 Bft)
22.06.2015 11:30 20,3 C 23,8 C 57 % 1018,0 hPa 0,0 mm 9,3 km/h (2 Bft) NW 315 11,5 C 6,0 km/h (2 Bft)
22.06.2015 11:35 20,4 C 24,0 C 57 % 1017,9 hPa 0,0 mm 8,5 km/h (2 Bft) NW 315 11,6 C 8,0 km/h (2 Bft)
22.06.2015 11:40 20,9 C 24,9 C 57 % 1017,9 hPa 0,0 mm 7,3 km/h (2 Bft) W-NW 292 12,1 C 7,8 km/h (2 Bft)
22.06.2015 11:45 21,2 C 25,3 C 56 % 1017,9 hPa 0,0 mm 8,5 km/h (2 Bft) NW 315 12,1 C 13,5 km/h (3 Bft)
22.06.2015 11:50 21,4 C 25,2 C 57 % 1017,9 hPa 0,0 mm 9,8 km/h (2 Bft) W-NW 292 12,5 C 25,6 km/h (4 Bft)
22.06.2015 11:55 21,6 C 25,3 C 57 % 1018,2 hPa 0,0 mm 9,8 km/h (2 Bft) NW 315 12,7 C 18,6 km/h (3 Bft)
22.06.2015 12:00 21,5 C 25,1 C 55 % 1018,2 hPa 0,0 mm 11,4 km/h (2 Bft) S-SO 157 12,1 C 15,8 km/h (3 Bft)
22.06.2015 12:05 21,4 C 25,1 C 54 % 1018,2 hPa 0,0 mm 11,1 km/h (2 Bft) NW 315 11,7 C 10,9 km/h (2 Bft)
22.06.2015 12:10 21,5 C 25,4 C 55 % 1018,2 hPa 0,0 mm 8,8 km/h (2 Bft) NW 315 12,1 C 12,4 km/h (3 Bft)
22.06.2015 12:15 21,5 C 25,2 C 55 % 1018,1 hPa 0,0 mm 9,3 km/h (2 Bft) NW 315 12,1 C 9,8 km/h (2 Bft)
22.06.2015 12:20 21,6 C 25,2 C 54 % 1018,1 hPa 0,0 mm 10,9 km/h (2 Bft) NW 315 11,9 C 16,3 km/h (3 Bft)
22.06.2015 12:25 21,7 C 25,0 C 54 % 1018,1 hPa 0,0 mm 12,7 km/h (3 Bft) W-NW 292 12,0 C 9,8 km/h (2 Bft)
22.06.2015 12:30 21,7 C 24,8 C 53 % 1018,1 hPa 0,0 mm 15,8 km/h (3 Bft) NW 315 11,7 C 32,6 km/h (5 Bft)
22.06.2015 12:35 21,8 C 25,0 C 54 % 1017,8 hPa 0,0 mm 13,5 km/h (3 Bft) N 360 12,1 C 16,1 km/h (3 Bft)
22.06.2015 12:40 21,8 C 24,6 C 53 % 1017,8 hPa 0,0 mm 12,4 km/h (3 Bft) W-NW 292 11,8 C 19,9 km/h (4 Bft)
22.06.2015 12:45 21,9 C 24,2 C 54 % 1017,8 hPa 0,0 mm 12,2 km/h (2 Bft) S 180 12,2 C 7,5 km/h (2 Bft)
22.06.2015 12:50 22,1 C 24,2 C 52 % 1017,8 hPa 0,0 mm 12,2 km/h (2 Bft) NW 315 11,8 C 28,0 km/h (4 Bft)
22.06.2015 12:55 21,8 C 24,1 C 51 % 1017,2 hPa 0,0 mm 14,5 km/h (3 Bft) S 180 11,2 C 16,8 km/h (3 Bft)
22.06.2015 13:00 21,7 C 24,1 C 49 % 1017,2 hPa 0,0 mm 17,1 km/h (3 Bft) NW 315 10,5 C 34,2 km/h (5 Bft)
22.06.2015 13:05 21,7 C 24,5 C 49 % 1017,2 hPa 0,0 mm 16,3 km/h (3 Bft) W 270 10,5 C 32,6 km/h (5 Bft)
22.06.2015 13:10 21,9 C 24,9 C 50 % 1017,2 hPa 0,0 mm 16,1 km/h (3 Bft) W-NW 292 11,0 C 24,3 km/h (4 Bft)
22.06.2015 13:15 21,6 C 24,8 C 49 % 1016,3 hPa 0,0 mm 14,5 km/h (3 Bft) W-NW 292 10,4 C 16,1 km/h (3 Bft)
22.06.2015 13:20 21,6 C 24,7 C 50 % 1016,3 hPa 0,0 mm 16,3 km/h (3 Bft) W-SW 247 10,7 C 39,6 km/h (6 Bft)
22.06.2015 13:25 21,7 C 24,9 C 51 % 1016,3 hPa 0,0 mm 15,8 km/h (3 Bft) N-NW 337 11,1 C 20,7 km/h (4 Bft)
22.06.2015 13:30 21,9 C 24,9 C 52 % 1016,3 hPa 0,0 mm 14,5 km/h (3 Bft) W-NW 292 11,6 C 13,5 km/h (3 Bft)
22.06.2015 13:35 22,2 C 25,4 C 52 % 1015,9 hPa 0,0 mm 13,5 km/h (3 Bft) NW 315 11,9 C 22,0 km/h (4 Bft)
22.06.2015 13:40 22,3 C 25,6 C 51 % 1015,9 hPa 0,0 mm 10,9 km/h (2 Bft) S-SO 157 11,7 C 12,2 km/h (2 Bft)
22.06.2015 13:45 22,3 C 25,7 C 51 % 1015,9 hPa 0,0 mm 12,4 km/h (3 Bft) N-NW 337 11,7 C 31,1 km/h (5 Bft)
22.06.2015 13:50 22,2 C 25,8 C 49 % 1015,9 hPa 0,0 mm 13,5 km/h (3 Bft) W 270 11,0 C 28,7 km/h (4 Bft)
22.06.2015 13:55 22,1 C 25,4 C 51 % 1015,8 hPa 0,0 mm 14,5 km/h (3 Bft) NW 315 11,5 C 22,3 km/h (4 Bft)
22.06.2015 14:00 22,3 C 25,9 C 51 % 1015,8 hPa 0,0 mm 12,7 km/h (3 Bft) W-NW 292 11,7 C 15,5 km/h (3 Bft)
22.06.2015 14:05 22,3 C 25,9 C 52 % 1015,8 hPa 0,0 mm 12,2 km/h (2 Bft) N-NW 337 12,0 C 15,3 km/h (3 Bft)
22.06.2015 14:10 22,6 C 25,8 C 51 % 1015,8 hPa 0,0 mm 12,7 km/h (3 Bft) W 270 11,9 C 22,3 km/h (4 Bft)
22.06.2015 14:15 22,4 C 26,0 C 49 % 1015,6 hPa 0,0 mm 10,9 km/h (2 Bft) S-SW 202 11,2 C 5,2 km/h (1 Bft)
22.06.2015 14:20 22,0 C 26,0 C 48 % 1015,6 hPa 0,0 mm 10,4 km/h (2 Bft) W-NW 292 10,5 C 27,4 km/h (4 Bft)
22.06.2015 14:25 21,9 C 25,3 C 49 % 1015,6 hPa 0,0 mm 11,1 km/h (2 Bft) NW 315 10,7 C 12,2 km/h (2 Bft)
22.06.2015 14:30 22,1 C 25,5 C 49 % 1015,6 hPa 0,0 mm 12,7 km/h (3 Bft) NW 315 10,9 C 30,8 km/h (5 Bft)
22.06.2015 14:35 22,4 C 25,6 C 49 % 1015,3 hPa 0,0 mm 13,5 km/h (3 Bft) NW 315 11,2 C 24,1 km/h (4 Bft)
22.06.2015 14:40 22,0 C 25,0 C 49 % 1015,3 hPa 0,0 mm 15,8 km/h (3 Bft) W 270 10,8 C 7,0 km/h (2 Bft)
22.06.2015 14:45 21,9 C 25,1 C 51 % 1015,3 hPa 0,0 mm 12,4 km/h (3 Bft) NW 315 11,3 C 12,4 km/h (3 Bft)
22.06.2015 14:50 21,8 C 25,0 C 50 % 1015,3 hPa 0,0 mm 10,9 km/h (2 Bft) SW 225 10,9 C 29,8 km/h (5 Bft)
22.06.2015 14:55 21,5 C 24,6 C 51 % 1015,4 hPa 0,0 mm 12,2 km/h (2 Bft) NW 315 10,9 C 28,0 km/h (4 Bft)
22.06.2015 15:00 21,1 C 23,8 C 52 % 1015,4 hPa 0,0 mm 10,9 km/h (2 Bft) W-SW 247 10,9 C 18,9 km/h (3 Bft)
22.06.2015 15:05 20,8 C 23,3 C 52 % 1015,4 hPa 0,0 mm 10,4 km/h (2 Bft) NW 315 10,6 C 29,0 km/h (5 Bft)
22.06.2015 15:10 20,3 C 22,3 C 52 % 1015,4 hPa 0,7 mm 11,4 km/h (2 Bft) NW 315 10,1 C 11,4 km/h (2 Bft)
22.06.2015 15:15 20,1 C 22,0 C 53 % 1015,5 hPa 0,0 mm 10,1 km/h (2 Bft) NW 315 10,2 C 9,8 km/h (2 Bft)
22.06.2015 15:20 20,0 C 21,9 C 53 % 1015,5 hPa 0,0 mm 8,0 km/h (2 Bft) W-NW 292 10,1 C 10,4 km/h (2 Bft)
22.06.2015 15:25 19,8 C 21,7 C 53 % 1015,5 hPa 0,0 mm 10,6 km/h (2 Bft) NW 315 9,9 C 16,1 km/h (3 Bft)
22.06.2015 15:30 19,7 C 21,2 C 54 % 1015,5 hPa 0,0 mm 12,7 km/h (3 Bft) NW 315 10,1 C 31,3 km/h (5 Bft)
22.06.2015 15:35 19,4 C 20,8 C 54 % 1015,4 hPa 0,0 mm 15,0 km/h (3 Bft) W-NW 292 9,8 C 26,4 km/h (4 Bft)
22.06.2015 15:40 18,9 C 20,0 C 54 % 1015,4 hPa 0,0 mm 18,4 km/h (3 Bft) W 270 9,4 C 19,7 km/h (3 Bft)
22.06.2015 15:45 18,7 C 19,8 C 54 % 1015,4 hPa 0,0 mm 17,3 km/h (3 Bft) W 270 9,2 C 6,7 km/h (2 Bft)
22.06.2015 15:50 18,5 C 19,4 C 55 % 1015,4 hPa 0,0 mm 12,7 km/h (3 Bft) W-SW 247 9,3 C 22,0 km/h (4 Bft)
22.06.2015 15:55 17,8 C 18,9 C 57 % 1015,8 hPa 0,0 mm 13,2 km/h (3 Bft) W 270 9,2 C 17,6 km/h (3 Bft)
22.06.2015 16:00 17,2 C 17,9 C 59 % 1015,8 hPa 0,0 mm 15,3 km/h (3 Bft) W-NW 292 9,1 C 15,0 km/h (3 Bft)
22.06.2015 16:05 16,9 C 17,4 C 59 % 1015,8 hPa 0,0 mm 13,5 km/h (3 Bft) NW 315 8,8 C 13,7 km/h (3 Bft)
22.06.2015 16:10 16,6 C 17,0 C 60 % 1015,8 hPa 0,0 mm 12,7 km/h (3 Bft) NW 315 8,8 C 17,1 km/h (3 Bft)
22.06.2015 16:15 16,4 C 16,7 C 61 % 1015,8 hPa 0,0 mm 13,5 km/h (3 Bft) NW 315 8,9 C 20,5 km/h (4 Bft)
22.06.2015 16:20 16,2 C 16,3 C 61 % 1015,8 hPa 0,0 mm 13,2 km/h (3 Bft) NW 315 8,7 C 16,8 km/h (3 Bft)
22.06.2015 16:25 16,0 C 15,9 C 62 % 1015,8 hPa 0,0 mm 12,7 km/h (3 Bft) NW 315 8,7 C 8,8 km/h (2 Bft)
22.06.2015 16:30 15,7 C 15,5 C 66 % 1015,8 hPa 0,0 mm 10,1 km/h (2 Bft) W-NW 292 9,4 C 9,3 km/h (2 Bft)
22.06.2015 16:35 15,7 C 15,3 C 66 % 1015,7 hPa 0,0 mm 8,0 km/h (2 Bft) W-NW 292 9,4 C 14,5 km/h (3 Bft)
22.06.2015 16:40 15,4 C 15,0 C 66 % 1015,7 hPa 0,0 mm 8,3 km/h (2 Bft) W 270 9,1 C 16,3 km/h (3 Bft)
22.06.2015 16:45 15,2 C 14,7 C 66 % 1015,7 hPa 0,0 mm 10,4 km/h (2 Bft) W-NW 292 8,9 C 29,5 km/h (5 Bft)
22.06.2015 16:50 14,8 C 14,3 C 67 % 1015,7 hPa 0,0 mm 10,4 km/h (2 Bft) W 270 8,7 C 5,7 km/h (1 Bft)
22.06.2015 16:55 14,8 C 14,3 C 68 % 1015,8 hPa 0,0 mm 6,5 km/h (2 Bft) W-SW 247 9,0 C 4,1 km/h (1 Bft)
22.06.2015 17:00 14,7 C 14,1 C 69 % 1015,8 hPa 0,0 mm 2,1 km/h (1 Bft) SW 225 9,1 C 3,1 km/h (1 Bft)
22.06.2015 17:05 14,6 C 14,0 C 70 % 1015,8 hPa 0,0 mm 1,0 km/h (0 Bft) O-SO 112 9,2 C 0,0 km/h (0 Bft)
22.06.2015 17:10 14,5 C 14,0 C 71 % 1015,8 hPa 0,0 mm 0,0 km/h (0 Bft) W-SW 247 9,3 C 0,0 km/h (0 Bft)
22.06.2015 17:15 14,4 C 14,0 C 71 % 1015,6 hPa 0,0 mm 0,0 km/h (0 Bft) S 180 9,2 C 2,6 km/h (1 Bft)
22.06.2015 17:20 14,2 C 13,8 C 75 % 1015,6 hPa 0,0 mm 0,3 km/h (0 Bft) SO 135 9,8 C 2,6 km/h (1 Bft)
22.06.2015 17:25 14,0 C 13,7 C 76 % 1015,6 hPa 0,0 mm 0,3 km/h (0 Bft) SO 135 9,8 C 2,8 km/h (1 Bft)
22.06.2015 17:30 13,9 C 13,6 C 78 % 1015,6 hPa 0,0 mm 0,5 km/h (0 Bft) SO 135 10,1 C 0,0 km/h (0 Bft)
22.06.2015 17:35 13,8 C 13,5 C 79 % 1015,8 hPa 0,0 mm 0,3 km/h (0 Bft) SO 135 10,2 C 0,0 km/h (0 Bft)
22.06.2015 17:40 13,7 C 13,4 C 81 % 1015,8 hPa 0,0 mm 0,8 km/h (0 Bft) S 180 10,5 C 0,0 km/h (0 Bft)
22.06.2015 17:45 13,5 C 13,3 C 82 % 1015,8 hPa 0,7 mm 0,8 km/h (0 Bft) S 180 10,5 C 2,6 km/h (1 Bft)
22.06.2015 17:50 13,3 C 13,2 C 77 % 1015,8 hPa 0,0 mm 1,0 km/h (0 Bft) SO 135 9,4 C 0,0 km/h (0 Bft)
22.06.2015 17:55 13,3 C 13,2 C 78 % 1015,6 hPa 0,0 mm 1,0 km/h (0 Bft) S-SO 157 9,5 C 0,0 km/h (0 Bft)
22.06.2015 18:00 13,2 C 13,1 C 79 % 1015,6 hPa 0,0 mm 0,3 km/h (0 Bft) SO 135 9,6 C 0,0 km/h (0 Bft)
22.06.2015 18:05 13,2 C 13,1 C 79 % 1015,6 hPa 0,0 mm 0,0 km/h (0 Bft) O-SO 112 9,6 C 0,0 km/h (0 Bft)
22.06.2015 18:10 13,2 C 13,1 C 79 % 1015,6 hPa 0,0 mm 0,0 km/h (0 Bft) S 180 9,6 C 0,0 km/h (0 Bft)
22.06.2015 18:15 13,1 C 13,1 C 79 % 1015,3 hPa 0,0 mm 0,3 km/h (0 Bft) O-SO 112 9,5 C 0,0 km/h (0 Bft)
22.06.2015 18:20 13,1 C 13,0 C 80 % 1015,3 hPa 0,0 mm 0,3 km/h (0 Bft) N 360 9,7 C 0,0 km/h (0 Bft)
22.06.2015 18:25 13,1 C 13,1 C 80 % 1015,3 hPa 0,0 mm 0,0 km/h (0 Bft) W-SW 247 9,7 C 0,0 km/h (0 Bft)
22.06.2015 18:30 13,0 C 13,0 C 80 % 1015,3 hPa 0,7 mm 1,0 km/h (0 Bft) S-SW 202 9,6 C 0,0 km/h (0 Bft)
22.06.2015 18:35 13,0 C 12,9 C 80 % 1015,1 hPa 0,0 mm 3,1 km/h (1 Bft) S 180 9,6 C 10,4 km/h (2 Bft)
22.06.2015 18:40 13,0 C 12,8 C 83 % 1015,1 hPa 0,0 mm 4,9 km/h (1 Bft) SW 225 10,2 C 7,0 km/h (2 Bft)
22.06.2015 18:45 12,9 C 12,7 C 84 % 1015,1 hPa 0,0 mm 3,9 km/h (1 Bft) S 180 10,3 C 0,0 km/h (0 Bft)
22.06.2015 18:50 12,9 C 12,7 C 85 % 1015,1 hPa 0,0 mm 1,0 km/h (0 Bft) S 180 10,4 C 0,0 km/h (0 Bft)
22.06.2015 18:55 12,8 C 12,6 C 85 % 1014,8 hPa 0,0 mm 0,0 km/h (0 Bft) S-SO 157 10,3 C 0,0 km/h (0 Bft)
22.06.2015 19:00 12,8 C 12,7 C 86 % 1014,8 hPa 0,0 mm 0,0 km/h (0 Bft) S-SO 157 10,5 C 0,0 km/h (0 Bft)
22.06.2015 19:05 12,8 C 12,7 C 86 % 1014,8 hPa 0,0 mm 0,0 km/h (0 Bft) NO 45 10,5 C 0,0 km/h (0 Bft)
22.06.2015 19:10 12,8 C 12,6 C 86 % 1014,8 hPa 0,7 mm 0,0 km/h (0 Bft) O-NO 67 10,5 C 0,0 km/h (0 Bft)
22.06.2015 19:15 12,7 C 12,6 C 86 % 1014,2 hPa 0,0 mm 0,0 km/h (0 Bft) O-SO 112 10,4 C 0,0 km/h (0 Bft)
22.06.2015 19:20 12,6 C 12,5 C 83 % 1014,2 hPa 0,0 mm 0,0 km/h (0 Bft) O 90 9,8 C 0,0 km/h (0 Bft)
22.06.2015 19:25 12,6 C 12,5 C 86 % 1014,2 hPa 0,0 mm 0,0 km/h (0 Bft) SO 135 10,3 C 0,0 km/h (0 Bft)
22.06.2015 19:30 12,6 C 12,5 C 86 % 1014,2 hPa 0,0 mm 0,0 km/h (0 Bft) S-SO 157 10,3 C 0,0 km/h (0 Bft)
22.06.2015 19:35 12,5 C 12,4 C 86 % 1013,7 hPa 0,0 mm 0,0 km/h (0 Bft) O-SO 112 10,2 C 0,0 km/h (0 Bft)
22.06.2015 19:40 12,4 C 12,3 C 86 % 1013,7 hPa 0,0 mm 0,0 km/h (0 Bft) O-SO 112 10,1 C 0,0 km/h (0 Bft)
22.06.2015 19:45 12,3 C 12,3 C 83 % 1013,7 hPa 0,0 mm 0,0 km/h (0 Bft) O-SO 112 9,5 C 0,0 km/h (0 Bft)
22.06.2015 19:50 12,3 C 12,2 C 86 % 1013,7 hPa 0,0 mm 0,0 km/h (0 Bft) O-SO 112 10,0 C 0,0 km/h (0 Bft)
22.06.2015 19:55 12,2 C 12,1 C 86 % 1013,2 hPa 0,0 mm 0,0 km/h (0 Bft) SO 135 9,9 C 0,0 km/h (0 Bft)
22.06.2015 20:00 12,1 C 12,0 C 83 % 1013,2 hPa 0,0 mm 0,0 km/h (0 Bft) S-SO 157 9,3 C 0,0 km/h (0 Bft)
22.06.2015 20:05 12,1 C 11,9 C 86 % 1013,2 hPa 0,0 mm 0,0 km/h (0 Bft) S 180 9,8 C 0,0 km/h (0 Bft)
22.06.2015 20:10 12,0 C 11,8 C 86 % 1013,2 hPa 0,0 mm 0,0 km/h (0 Bft) S-SO 157 9,7 C 0,0 km/h (0 Bft)
22.06.2015 20:15 12,0 C 11,8 C 86 % 1012,8 hPa 0,0 mm 0,0 km/h (0 Bft) S-SO 157 9,7 C 0,0 km/h (0 Bft)
22.06.2015 20:20 11,9 C 11,8 C 84 % 1012,8 hPa 0,0 mm 0,0 km/h (0 Bft) S-SO 157 9,3 C 0,0 km/h (0 Bft)
22.06.2015 20:25 11,9 C 11,7 C 87 % 1012,8 hPa 0,0 mm 0,0 km/h (0 Bft) NO 45 9,8 C 0,0 km/h (0 Bft)
22.06.2015 20:30 11,8 C 11,7 C 84 % 1012,8 hPa 0,0 mm 0,0 km/h (0 Bft) O-NO 67 9,2 C 0,0 km/h (0 Bft)
22.06.2015 20:35 11,8 C 11,6 C 87 % 1012,5 hPa 0,0 mm 0,0 km/h (0 Bft) O-SO 112 9,7 C 0,0 km/h (0 Bft)
22.06.2015 20:40 11,7 C 11,6 C 84 % 1012,5 hPa 0,0 mm 1,6 km/h (1 Bft) O-SO 112 9,1 C 4,9 km/h (1 Bft)
22.06.2015 20:45 11,6 C 11,5 C 85 % 1012,5 hPa 0,0 mm 1,8 km/h (1 Bft) O 90 9,2 C 0,0 km/h (0 Bft)
22.06.2015 20:50 11,6 C 11,4 C 88 % 1012,5 hPa 0,0 mm 0,5 km/h (0 Bft) O-NO 67 9,7 C 0,0 km/h (0 Bft)
22.06.2015 20:55 11,6 C 11,4 C 88 % 1011,8 hPa 0,0 mm 0,0 km/h (0 Bft) O-SO 112 9,7 C 0,0 km/h (0 Bft)
22.06.2015 21:00 11,6 C 11,4 C 87 % 1011,8 hPa 0,0 mm 0,3 km/h (0 Bft) S-SW 202 9,5 C 0,0 km/h (0 Bft)
22.06.2015 21:05 11,5 C 11,4 C 85 % 1011,8 hPa 0,0 mm 0,3 km/h (0 Bft) SO 135 9,1 C 0,0 km/h (0 Bft)
22.06.2015 21:10 11,5 C 11,3 C 88 % 1011,8 hPa 0,0 mm 1,0 km/h (0 Bft) O-SO 112 9,6 C 4,7 km/h (1 Bft)
22.06.2015 21:15 11,5 C 11,4 C 85 % 1011,3 hPa 0,0 mm 2,3 km/h (1 Bft) SO 135 9,1 C 5,2 km/h (1 Bft)
22.06.2015 21:20 11,5 C 11,4 C 86 % 1011,3 hPa 0,0 mm 3,6 km/h (1 Bft) O-SO 112 9,2 C 2,8 km/h (1 Bft)
22.06.2015 21:25 11,5 C 11,3 C 89 % 1011,3 hPa 0,0 mm 3,4 km/h (1 Bft) O-SO 112 9,8 C 3,4 km/h (1 Bft)
22.06.2015 21:30 11,5 C 11,3 C 89 % 1011,3 hPa 0,0 mm 2,1 km/h (1 Bft) SO 135 9,8 C 0,0 km/h (0 Bft)
22.06.2015 21:35 11,5 C 11,3 C 89 % 1011,0 hPa 0,0 mm 1,0 km/h (0 Bft) SO 135 9,8 C 0,0 km/h (0 Bft)
22.06.2015 21:40 11,4 C 11,2 C 88 % 1011,0 hPa 0,0 mm 0,3 km/h (0 Bft) SO 135 9,5 C 2,8 km/h (1 Bft)
22.06.2015 21:45 11,4 C 11,2 C 89 % 1011,0 hPa 0,0 mm 0,5 km/h (0 Bft) O-SO 112 9,7 C 3,1 km/h (1 Bft)
22.06.2015 21:50 11,3 C 11,2 C 86 % 1011,0 hPa 0,0 mm 0,3 km/h (0 Bft) SO 135 9,0 C 0,0 km/h (0 Bft)
22.06.2015 21:55 11,3 C 11,1 C 88 % 1010,4 hPa 0,0 mm 0,3 km/h (0 Bft) NO 45 9,4 C 0,0 km/h (0 Bft)
22.06.2015 22:00 11,3 C 11,2 C 86 % 1010,4 hPa 0,0 mm 0,0 km/h (0 Bft) O-SO 112 9,0 C 0,0 km/h (0 Bft)
22.06.2015 22:05 11,3 C 11,1 C 88 % 1010,4 hPa 0,0 mm 0,0 km/h (0 Bft) N-NO 22 9,4 C 0,0 km/h (0 Bft)
22.06.2015 22:10 11,3 C 11,1 C 88 % 1010,4 hPa 0,0 mm 0,3 km/h (0 Bft) O 90 9,4 C 0,0 km/h (0 Bft)
22.06.2015 22:15 11,3 C 11,1 C 88 % 1010,1 hPa 0,0 mm 0,3 km/h (0 Bft) O-SO 112 9,4 C 0,0 km/h (0 Bft)
22.06.2015 22:20 11,2 C 11,1 C 86 % 1010,1 hPa 0,0 mm 0,0 km/h (0 Bft) O-SO 112 8,9 C 0,0 km/h (0 Bft)
22.06.2015 22:25 11,2 C 11,0 C 88 % 1010,1 hPa 0,0 mm 0,3 km/h (0 Bft) O-SO 112 9,3 C 0,0 km/h (0 Bft)
22.06.2015 22:30 11,0 C 10,8 C 88 % 1010,1 hPa 0,0 mm 0,8 km/h (0 Bft) W 270 9,1 C 6,2 km/h (2 Bft)
22.06.2015 22:35 11,2 C 10,9 C 88 % 1010,1 hPa 0,0 mm 1,3 km/h (1 Bft) NW 315 9,3 C 0,0 km/h (0 Bft)
22.06.2015 22:40 10,9 C 10,7 C 88 % 1010,1 hPa 0,0 mm 2,1 km/h (1 Bft) W-SW 247 9,0 C 0,0 km/h (0 Bft)
22.06.2015 22:45 10,9 C 10,7 C 88 % 1010,1 hPa 0,0 mm 0,8 km/h (0 Bft) SO 135 9,0 C 0,0 km/h (0 Bft)
22.06.2015 22:50 10,8 C 10,6 C 88 % 1010,1 hPa 0,0 mm 0,0 km/h (0 Bft) W-SW 247 8,9 C 0,0 km/h (0 Bft)
22.06.2015 22:55 10,8 C 10,6 C 88 % 1009,8 hPa 0,0 mm 0,0 km/h (0 Bft) W-SW 247 8,9 C 0,0 km/h (0 Bft)
22.06.2015 23:00 10,9 C 10,7 C 88 % 1009,8 hPa 0,0 mm 0,0 km/h (0 Bft) S-SO 157 9,0 C 0,0 km/h (0 Bft)
22.06.2015 23:05 10,9 C 10,8 C 85 % 1009,8 hPa 0,0 mm 0,0 km/h (0 Bft) S-SO 157 8,5 C 0,0 km/h (0 Bft)
22.06.2015 23:10 11,1 C 11,1 C 86 % 1009,8 hPa 0,0 mm 0,3 km/h (0 Bft) W-SW 247 8,8 C 0,0 km/h (0 Bft)
22.06.2015 23:15 11,2 C 11,2 C 86 % 1009,6 hPa 0,0 mm 0,3 km/h (0 Bft) O-NO 67 8,9 C 0,0 km/h (0 Bft)
22.06.2015 23:20 11,5 C 11,4 C 86 % 1009,6 hPa 0,0 mm 0,8 km/h (0 Bft) O-NO 67 9,2 C 0,0 km/h (0 Bft)
22.06.2015 23:25 11,6 C 11,4 C 86 % 1009,6 hPa 0,0 mm 1,0 km/h (0 Bft) S 180 9,3 C 0,0 km/h (0 Bft)
22.06.2015 23:30 11,7 C 11,6 C 86 % 1009,6 hPa 0,0 mm 1,3 km/h (1 Bft) NW 315 9,4 C 6,5 km/h (2 Bft)
22.06.2015 23:35 11,9 C 11,6 C 88 % 1009,2 hPa 0,0 mm 2,1 km/h (1 Bft) W-SW 247 10,0 C 0,0 km/h (0 Bft)
22.06.2015 23:40 11,7 C 11,5 C 88 % 1009,2 hPa 0,0 mm 1,6 km/h (1 Bft) N-NO 22 9,8 C 0,0 km/h (0 Bft)
22.06.2015 23:45 11,6 C 11,4 C 88 % 1009,2 hPa 0,0 mm 0,0 km/h (0 Bft) NO 45 9,7 C 0,0 km/h (0 Bft)
22.06.2015 23:50 11,5 C 11,3 C 88 % 1009,2 hPa 0,0 mm 0,0 km/h (0 Bft) SO 135 9,6 C 0,0 km/h (0 Bft)
22.06.2015 23:55 11,5 C 11,3 C 88 % 1009,0 hPa 0,0 mm 0,5 km/h (0 Bft) S-SO 157 9,6 C 3,6 km/h (1 Bft)
_ Min-Zeit 04:40 04:40 14:20 23:55 - 23:50 - - 01:35 23:50
Minimum _ 9,9 C 9,8 C 48 % 1009,0 hPa - 0,0 km/h (0 Bft) - - 8,1 C 0,0 km/h (0 Bft)
_ Max-Zeit 14:10 14:20 04:05 00:10 19:10 15:40 - - 09:55 13:20
Maximum _ 22,6 C 26,0 C 90 % 1018,9 hPa 0,7 mm 18,4 km/h
W (3 Bft)
- - 12,7 C 39,6 km/h
W-SW (6 Bft)
Durchschnitt _ 14,7 C 16,3 C 75 % 1016,1 hPa #4,8 mm 4,4 km/h (1 Bft) NW - 10,1 C 6,6 km/h (2 Bft)